Погода в Молодёжном

Россия / Хабаровский край     50°22′41″N   136°56′52″E
темп.,
°C
ветер,
м/с
пор.,
м/с
влажн.,
%
обл.,
%
осадки,
мм/ч
давл.,
гПа
погр.,
м
5 декабря, вс
вс501:00−22ю7159599 0.1 1017478
04:00−22ю7169498 0.1 1017499
07:00−21ю8169295 0.0 1017569
10:00−19ю91790100 0.0 1017616
13:00−16ююз91689100 0.0 1016687
16:00−14ююз9158798 0.1 1016652
19:00−13ю81589100 0.0 1016620
22:00−13ю9178978 0.1 1016525
6 декабря, пн
пн601:00−13ю8208850 0.0 1015570
04:00−13ю7199080 0.0 1014500
07:00−13ю6179289 0.0 1013470
10:00−10ююз71788100 0.1 1012579
13:00−9ю7158967 0.0 1010484
16:00−9ююз6118821 0.1 1010325
19:00−15зсз119847 0.0 101323
22:00−19ю119957 0.0 10179
7 декабря, вт
вт701:00−21юв1110058 0.0 10199
04:00−18ююз3598100 0.0 102372
07:00−17ююв2399100 0.0 102545
10:00−15ю389894 0.0 1026214
13:00−10ююз588433 0.0 1025409
16:00−11ю5109183 0.0 1026344
19:00−12ю51095100 0.0 1026286
22:00−13ю499799 0.1 1027247
8 декабря, ср
ср801:00−15ю3699100 0.1 1027127
04:00−16ю37100100 0.1 1028142
07:00−16ю3810099 0.1 1028172
10:00−14ю41196100 0.1 1029334
13:00−11ю6119398 0.0 1028397
16:00−10ю6129297 0.1 1027404
19:00−10ю5129598 0.0 1027348
22:00−10ю5139499 0.1 1027384
9 декабря, чт
чт901:00−10ю6179257 0.0 1027408
04:00−10ю61893100 0.0 1025404
07:00−10ю61794100 0.0 1023443
10:00−10ю61795100 0.0 1023394
13:00−8ю61789100 0.0 1021383
16:00−7ю61684100 0.0 1020404
19:00−7ю61882100 0.0 1019384
22:00−8ю51684100 0.0 1019348